timestamp,wind_dir_avg,wind_spd_max_dir,wind_spd_avg,wind_spd_gust,battery_voltage,lat,long
2019-11-13 00:04:01+00:00,210.0,210.0,15.45,17.46,12.65,47.59359,-54.27349
2019-11-13 00:14:01+00:00,211.0,205.0,14.81,17.48,12.57,47.59359,-54.27349
2019-11-13 00:24:01+00:00,217.0,214.0,15.1,17.78,12.57,47.59359,-54.27349
2019-11-13 00:34:01+00:00,215.0,213.0,14.74,17.74,12.57,47.59359,-54.27349
2019-11-13 00:44:01+00:00,218.0,223.0,14.57,16.26,12.57,47.59359,-54.27349
2019-11-13 00:54:01+00:00,217.0,216.0,14.67,17.45,12.57,47.59359,-54.27349
2019-11-13 01:04:01+00:00,208.0,210.0,15.7,18.37,12.57,47.59359,-54.27349
2019-11-13 01:14:01+00:00,213.0,213.0,15.13,17.74,12.57,47.59359,-54.27349
2019-11-13 01:24:01+00:00,219.0,218.0,13.72,16.04,12.57,47.59359,-54.27349
2019-11-13 01:34:01+00:00,225.0,229.0,17.12,19.76,12.57,47.59359,-54.27349
2019-11-13 01:44:01+00:00,225.0,227.0,15.37,18.57,12.57,47.59359,-54.27349
2019-11-13 01:54:01+00:00,228.0,230.0,11.93,13.74,12.57,47.59359,-54.27349
2019-11-13 02:04:01+00:00,227.0,229.0,12.37,15.17,12.57,47.59359,-54.27349
2019-11-13 02:14:01+00:00,223.0,228.0,13.43,15.76,12.57,47.59359,-54.27349
2019-11-13 02:24:01+00:00,220.0,227.0,12.5,14.07,12.57,47.59359,-54.27349
2019-11-13 02:34:01+00:00,209.0,207.0,13.84,16.78,12.57,47.59359,-54.27349
2019-11-13 02:44:01+00:00,214.0,214.0,14.05,17.22,12.57,47.59359,-54.27349
2019-11-13 02:54:01+00:00,215.0,214.0,14.26,16.44,12.57,47.59359,-54.27349
2019-11-13 03:04:01+00:00,219.0,218.0,14.07,17.27,12.57,47.59359,-54.27349
2019-11-13 03:14:01+00:00,230.0,223.0,10.82,13.29,12.57,47.59359,-54.27349
2019-11-13 03:24:01+00:00,252.0,251.0,10.12,12.25,12.57,47.59359,-54.27349
2019-11-13 03:34:01+00:00,253.0,248.0,8.88,12.93,12.57,47.59359,-54.27349
2019-11-13 03:44:01+00:00,251.0,253.0,8.98,11.2,12.57,47.59359,-54.27349
2019-11-13 03:54:01+00:00,247.0,234.0,9.04,13.14,12.57,47.59359,-54.27349
2019-11-13 04:04:01+00:00,240.0,243.0,11.46,14.0,12.57,47.59359,-54.27349
2019-11-13 04:14:01+00:00,239.0,237.0,12.27,16.14,12.57,47.59359,-54.27349
2019-11-13 04:24:01+00:00,239.0,244.0,12.74,15.61,12.57,47.59359,-54.27349
2019-11-13 04:34:01+00:00,232.0,229.0,14.8,17.51,12.57,47.59359,-54.27349
2019-11-13 04:44:01+00:00,220.0,218.0,14.31,17.38,12.57,47.59359,-54.27349
2019-11-13 04:54:01+00:00,217.0,217.0,16.88,20.93,12.57,47.59359,-54.27349
2019-11-13 05:04:01+00:00,215.0,216.0,15.93,18.08,12.57,47.59359,-54.27349
2019-11-13 05:14:01+00:00,216.0,212.0,17.15,21.15,12.49,47.59359,-54.27349
2019-11-13 05:24:01+00:00,213.0,211.0,15.64,18.39,12.49,47.59359,-54.27349
2019-11-13 05:34:01+00:00,214.0,214.0,18.25,20.81,12.49,47.59359,-54.27349
2019-11-13 05:44:01+00:00,214.0,213.0,17.41,20.01,12.49,47.59359,-54.27349
2019-11-13 05:54:01+00:00,215.0,215.0,17.45,20.43,12.49,47.59359,-54.27349
2019-11-13 06:04:01+00:00,214.0,219.0,16.22,18.77,12.49,47.59359,-54.27349
2019-11-13 06:14:01+00:00,215.0,218.0,17.67,21.11,12.49,47.59359,-54.27349
2019-11-13 06:24:01+00:00,218.0,217.0,14.66,17.48,12.49,47.59359,-54.27349
2019-11-13 06:34:01+00:00,221.0,217.0,14.23,16.94,12.49,47.59359,-54.27349
2019-11-13 06:44:01+00:00,220.0,217.0,12.81,15.58,12.49,47.59359,-54.27349
2019-11-13 06:54:01+00:00,219.0,216.0,12.6,14.15,12.49,47.59359,-54.27349
2019-11-13 07:04:01+00:00,223.0,222.0,13.27,15.21,12.49,47.59359,-54.27349
2019-11-13 07:14:01+00:00,220.0,219.0,12.68,14.35,12.49,47.59359,-54.27349
2019-11-13 07:24:01+00:00,221.0,218.0,12.18,14.12,12.49,47.59359,-54.27349
2019-11-13 07:34:01+00:00,218.0,224.0,12.02,13.58,12.49,47.59359,-54.27349
2019-11-13 07:44:01+00:00,211.0,210.0,13.92,17.52,12.49,47.59359,-54.27349
2019-11-13 07:54:01+00:00,206.0,206.0,14.97,17.91,12.49,47.59359,-54.27349
2019-11-13 08:04:01+00:00,204.0,209.0,15.93,19.38,12.49,47.59359,-54.27349
2019-11-13 08:14:01+00:00,206.0,207.0,15.53,19.33,12.49,47.59359,-54.27349
2019-11-13 08:24:01+00:00,206.0,202.0,13.49,16.15,12.49,47.59359,-54.27349
2019-11-13 08:34:01+00:00,208.0,208.0,12.75,14.88,12.49,47.59359,-54.27349
2019-11-13 08:44:01+00:00,201.0,198.0,14.51,16.89,12.49,47.59359,-54.27349
2019-11-13 08:54:01+00:00,205.0,208.0,15.1,17.81,12.49,47.59359,-54.27349
2019-11-13 09:04:01+00:00,207.0,201.0,16.99,19.16,12.49,47.59359,-54.27349
2019-11-13 09:14:01+00:00,205.0,195.0,16.0,19.22,12.41,47.59359,-54.27349
2019-11-13 09:24:01+00:00,198.0,199.0,13.94,16.11,12.41,47.59359,-54.27349
2019-11-13 09:34:01+00:00,191.0,190.0,15.5,19.47,12.41,47.59359,-54.27349
2019-11-13 09:44:01+00:00,190.0,185.0,14.73,17.27,12.41,47.59359,-54.27349
2019-11-13 09:54:01+00:00,194.0,199.0,15.21,19.13,12.41,47.59359,-54.27349
2019-11-13 10:04:01+00:00,195.0,193.0,17.79,19.62,12.41,47.59359,-54.27349
2019-11-13 10:14:01+00:00,187.0,184.0,14.27,16.58,12.41,47.59359,-54.27349
2019-11-13 10:24:01+00:00,189.0,189.0,16.83,19.3,12.41,47.59359,-54.27349
2019-11-13 10:34:01+00:00,194.0,194.0,15.42,19.45,12.41,47.59359,-54.27349
2019-11-13 10:44:01+00:00,189.0,192.0,16.91,18.99,12.41,47.59359,-54.27349
2019-11-13 10:54:01+00:00,196.0,203.0,19.2,23.75,12.41,47.59359,-54.27349
2019-11-13 11:04:01+00:00,203.0,208.0,20.25,23.82,12.41,47.59359,-54.27349
2019-11-13 11:14:01+00:00,203.0,203.0,19.86,23.72,12.41,47.59359,-54.27349
2019-11-13 11:24:01+00:00,208.0,204.0,20.73,24.07,12.41,47.59359,-54.27349
2019-11-13 11:34:01+00:00,214.0,217.0,22.52,26.21,12.41,47.59359,-54.27349
2019-11-13 11:44:01+00:00,216.0,217.0,18.39,23.39,12.41,47.59359,-54.27349
2019-11-13 11:54:01+00:00,222.0,226.0,20.81,25.09,12.41,47.59359,-54.27349
2019-11-13 12:04:01+00:00,231.0,219.0,15.31,18.78,12.41,47.59359,-54.27349
2019-11-13 12:14:01+00:00,225.0,230.0,17.46,22.6,12.41,47.59359,-54.27349
2019-11-13 12:24:01+00:00,225.0,230.0,17.64,21.46,12.41,47.59359,-54.27349
2019-11-13 12:34:01+00:00,220.0,224.0,15.76,19.42,12.41,47.59359,-54.27349
2019-11-13 12:44:01+00:00,219.0,214.0,15.66,18.1,12.41,47.59359,-54.27349
2019-11-13 12:54:01+00:00,228.0,226.0,15.22,18.37,12.41,47.59359,-54.27349
2019-11-13 13:04:01+00:00,225.0,221.0,16.34,19.43,12.41,47.59359,-54.27349
2019-11-13 13:14:01+00:00,220.0,218.0,16.58,18.88,12.57,47.59359,-54.27349
2019-11-13 13:24:01+00:00,233.0,232.0,13.01,15.26,12.57,47.59359,-54.27349
2019-11-13 13:34:01+00:00,233.0,233.0,12.57,14.39,12.57,47.59359,-54.27349
2019-11-13 13:44:01+00:00,232.0,233.0,11.77,14.93,12.57,47.59359,-54.27349
2019-11-13 13:54:01+00:00,232.0,232.0,12.4,15.7,12.57,47.59359,-54.27349
2019-11-13 14:04:01+00:00,233.0,236.0,12.13,13.96,12.57,47.59359,-54.27349
2019-11-13 14:14:01+00:00,231.0,228.0,11.81,13.83,12.97,47.59359,-54.27349
2019-11-13 14:24:01+00:00,229.0,228.0,12.96,14.72,12.97,47.59359,-54.27349
2019-11-13 14:34:01+00:00,228.0,227.0,15.22,16.75,12.97,47.59359,-54.27349
2019-11-13 14:44:01+00:00,230.0,231.0,14.41,18.05,12.97,47.59359,-54.27349
2019-11-13 14:54:01+00:00,230.0,231.0,14.8,17.2,12.97,47.59359,-54.27349
2019-11-13 15:04:01+00:00,235.0,232.0,11.65,13.68,12.97,47.59359,-54.27349
2019-11-13 15:14:01+00:00,244.0,233.0,10.51,13.38,13.44,47.59359,-54.27349
2019-11-13 15:24:01+00:00,241.0,241.0,13.0,15.1,13.44,47.59359,-54.27349
2019-11-13 15:34:01+00:00,240.0,242.0,13.25,16.44,13.44,47.59359,-54.27349
2019-11-13 15:44:01+00:00,240.0,240.0,12.14,14.94,13.44,47.59359,-54.27349
2019-11-13 15:54:01+00:00,239.0,232.0,10.01,11.78,13.44,47.59359,-54.27349
2019-11-13 16:04:01+00:00,230.0,227.0,11.19,13.49,13.44,47.59359,-54.27349
2019-11-13 16:14:01+00:00,236.0,235.0,9.8,11.11,13.29,47.59359,-54.27349
2019-11-13 16:24:01+00:00,229.0,230.0,11.98,14.07,13.29,47.59359,-54.27349
2019-11-13 16:34:01+00:00,234.0,235.0,13.84,17.88,13.29,47.59359,-54.27349
2019-11-13 16:44:01+00:00,226.0,225.0,12.68,14.53,13.29,47.59359,-54.27349
2019-11-13 16:54:01+00:00,258.0,262.0,11.62,14.97,13.29,47.59359,-54.27349
2019-11-13 17:04:01+00:00,242.0,233.0,12.92,15.69,13.29,47.59359,-54.27349
2019-11-13 17:14:01+00:00,237.0,237.0,12.24,15.09,13.05,47.59359,-54.27349
2019-11-13 17:24:01+00:00,233.0,235.0,12.43,14.2,13.05,47.59359,-54.27349
2019-11-13 17:34:01+00:00,231.0,232.0,13.46,15.6,13.05,47.59359,-54.27349
2019-11-13 17:44:01+00:00,235.0,235.0,9.24,10.99,13.05,47.59359,-54.27349
2019-11-13 17:54:01+00:00,235.0,233.0,10.31,11.81,13.05,47.59359,-54.27349
2019-11-13 18:04:01+00:00,227.0,233.0,12.76,14.63,13.05,47.59359,-54.27349
2019-11-13 18:14:01+00:00,227.0,226.0,12.18,13.76,13.05,47.59359,-54.27349
2019-11-13 18:24:01+00:00,227.0,228.0,11.58,13.48,13.05,47.59359,-54.27349
2019-11-13 18:34:01+00:00,231.0,230.0,9.51,11.62,13.05,47.59359,-54.27349
2019-11-13 18:44:01+00:00,227.0,228.0,12.08,13.36,13.05,47.59359,-54.27349
2019-11-13 18:54:01+00:00,231.0,241.0,11.8,14.05,13.05,47.59359,-54.27349
2019-11-13 19:04:01+00:00,231.0,230.0,11.74,13.79,13.05,47.59359,-54.27349
2019-11-13 19:14:01+00:00,229.0,231.0,10.77,12.58,12.73,47.59359,-54.27349
2019-11-13 19:24:01+00:00,227.0,226.0,11.04,12.21,12.73,47.59359,-54.27349
2019-11-13 19:34:01+00:00,227.0,226.0,10.65,11.84,12.73,47.59359,-54.27349
2019-11-13 19:44:01+00:00,226.0,228.0,10.78,11.81,12.73,47.59359,-54.27349
2019-11-13 19:54:01+00:00,230.0,237.0,10.67,12.54,12.73,47.59359,-54.27349
2019-11-13 20:04:01+00:00,236.0,235.0,9.85,10.67,12.73,47.59359,-54.27349
2019-11-13 20:14:01+00:00,245.0,241.0,8.91,10.27,12.65,47.59359,-54.27349
2019-11-13 20:24:01+00:00,257.0,258.0,7.49,8.53,12.65,47.59359,-54.27349
2019-11-13 20:34:01+00:00,270.0,269.0,9.84,10.93,12.65,47.59359,-54.27349
2019-11-13 20:44:01+00:00,264.0,262.0,8.86,9.41,12.65,47.59359,-54.27349
2019-11-13 20:54:01+00:00,263.0,252.0,7.25,9.17,12.65,47.59359,-54.27349
2019-11-13 21:04:01+00:00,265.0,265.0,6.63,7.59,12.65,47.59359,-54.27349
2019-11-13 21:14:01+00:00,252.0,251.0,7.3,8.44,12.65,47.59359,-54.27349
2019-11-13 21:24:01+00:00,243.0,250.0,7.57,8.5,12.65,47.59359,-54.27349
2019-11-13 21:34:01+00:00,244.0,246.0,7.54,9.14,12.65,47.59359,-54.27349
2019-11-13 21:44:01+00:00,243.0,239.0,9.23,10.19,12.65,47.59359,-54.27349
2019-11-13 21:54:01+00:00,257.0,256.0,10.85,12.53,12.65,47.59359,-54.27349
2019-11-13 22:04:01+00:00,263.0,265.0,12.5,13.87,12.65,47.59359,-54.27349
2019-11-13 22:14:01+00:00,264.0,267.0,14.59,16.44,12.57,47.59359,-54.27349
2019-11-13 22:24:01+00:00,273.0,272.0,12.37,15.23,12.57,47.59359,-54.27349
2019-11-13 22:34:01+00:00,274.0,279.0,14.24,16.29,12.57,47.59359,-54.27349
2019-11-13 22:44:01+00:00,266.0,270.0,13.64,15.29,12.57,47.59359,-54.27349
2019-11-13 22:54:01+00:00,266.0,266.0,13.88,15.51,12.57,47.59359,-54.27349
2019-11-13 23:04:01+00:00,268.0,263.0,12.58,15.19,12.57,47.59359,-54.27349
2019-11-13 23:14:01+00:00,278.0,272.0,13.64,16.12,12.57,47.59359,-54.27349
2019-11-13 23:24:01+00:00,281.0,283.0,13.36,14.93,12.57,47.59359,-54.27349
2019-11-13 23:34:01+00:00,282.0,279.0,14.35,16.06,12.57,47.59359,-54.27349
2019-11-13 23:44:01+00:00,258.0,256.0,13.05,15.35,12.57,47.59359,-54.27349
2019-11-13 23:54:01+00:00,283.0,282.0,11.33,13.36,12.57,47.59359,-54.27349
